[[{"header":{"parameterUnit":"m.s-1","parameterCategory":1,"la1":30.2991,"la2":30.254,"lo1":-89.0895,"lo2":-89.0444,"dy":0.0017,"dx":0.0017,"nx":28,"ny":28,"refTime":"2023-09-28T09:00:00:Z","depth":0,"parameterNumber":2,"parameterNumberName":"U-component_of_WINDS"},"data":[0,0,0,0,0,0,0,0,0,0,0,0,0,0,0,0,0,0,0,0,0,0,0,0,0,0,0,0,0,0,0,0,0,0,0,0,0,0,0,0,0,0,0,0,0,0,0,0,0,0,0,0,0,0,0,0,0,0,-4.9692,-4.9692,0,-4.9675,-4.9674,-4.9674,-4.9557,-4.9554,-4.9551,-4.9548,-4.9532,-4.9535,-4.9537,0,0,0,0,0,0,0,0,0,0,0,0,0,-4.9627,-4.9629,-4.9692,-4.9692,-4.9692,-4.9675,-4.9674,-4.9674,-4.9557,-4.9554,-4.955,-4.9547,-4.9532,-4.9534,-4.9537,0,0,0,0,0,0,0,0,0,0,0,0,0,-4.9637,-4.963,-4.9692,-4.9631,-4.9626,-4.9675,-4.9674,-4.9674,-4.9558,-4.9554,-4.9549,-4.9545,-4.9531,-4.9534,-4.9537,-4.9644,0,0,-4.9548,-4.9549,0,0,0,0,0,0,0,0,-4.9637,-4.964,-4.964,-4.9635,-4.9629,-4.9613,-4.9645,-4.9664,-4.9559,-4.9584,-4.9548,-4.9543,-4.9563,-4.9563,-4.957,-4.9643,-4.9643,-4.9548,-4.955,-4.9552,-4.9552,0,0,0,0,0,0,0,-4.9636,-4.964,-4.9685,-4.9641,-4.9634,-4.9606,-4.9602,-4.9649,-4.9598,-4.9581,-4.9573,-4.9572,-4.9559,-4.9567,-4.9568,-4.9642,-4.9548,-4.9551,-4.9553,-4.9554,-4.9805,-4.981,0,0,0,0,0,0,-4.9644,-4.964,-4.9686,-4.9685,-4.9623,-4.961,-4.9607,-4.9623,-4.9597,-4.9589,-4.9576,-4.9567,-4.9563,-4.9565,-4.9567,-4.9692,-4.9551,-4.9555,-4.9557,-4.9801,-4.9806,-4.9811,0,0,0,0,0,0,-4.9643,-4.9649,-4.9686,-4.966,-4.9663,-4.9616,-4.9635,-4.9625,-4.9632,-4.9593,-4.9583,-4.9593,-4.956,-4.9563,-4.9626,-4.9689,-4.9556,-4.9559,-4.9795,-4.9802,-4.9809,-4.9941,0,0,0,0,0,0,-4.9641,-4.9649,-4.9688,-4.9662,-4.9664,-4.9745,-4.9639,-4.9628,-4.9638,-4.9626,-4.9606,-4.9599,-4.9557,-4.9622,-4.963,-4.9692,-4.9562,-4.9789,-4.9798,-4.9806,-4.993,-4.9951,-4.9969,0,0,0,0,0,-4.964,-4.9726,-4.9691,-4.9697,-4.9712,-4.9749,-4.975,-4.97,-4.9644,-4.9683,-4.9658,-4.9599,-4.9682,-4.9629,-4.9637,-4.9701,-4.9785,-4.9796,-4.9806,-4.9922,-4.9947,-4.9969,0,0,0,0,0,0,-4.9762,-4.9722,-4.9682,-4.9762,-4.976,-4.9729,-4.9777,-4.9728,-4.9741,-4.973,-4.9667,-4.9663,-4.9737,-4.9725,-4.9668,-4.9804,-4.9723,-4.9736,-4.9809,-4.9833,-4.9852,-4.9853,-4.9565,0,0,0,0,0,-4.9798,-4.983,-4.9793,-4.9868,-4.9869,-4.9824,-4.9838,-4.9799,-4.9794,-4.9792,-4.9772,-4.977,-4.9795,-4.9813,-4.9834,-4.9929,-4.9923,-4.9977,-4.9996,-5.0012,-5.0023,-5.0074,-5.0098,-4.9845,-4.9845,-4.9845,0,0,-4.9873,-4.9855,-4.9879,-4.9892,-4.9886,-4.9921,-4.9823,-4.9865,-4.9891,-4.9799,-4.9857,-4.9843,-4.9837,-4.9917,-4.9951,-4.9909,-5.0092,-5.0025,-5.0038,-5.0041,-5.0087,-5.0111,-5.0133,-4.9853,-4.9851,-4.985,0,0,-5.0028,-5.0018,-5.0079,-5.0075,-5.0067,-5.0036,-5.0052,-5.0028,-5.0015,-5.0073,-5.0005,-5.0036,-5.0081,-5.008,-5.0085,-5.0243,-5.019,-5.0252,-5.0353,-5.0403,-5.0423,-5.044,-5.0497,-5.0518,-5.0264,-5.0264,-5.0264,0,-5.0123,-5.0173,-5.0117,-5.0164,-5.0172,-5.0091,-5.0153,-5.0152,-5.0152,-5.016,-5.0113,-5.0169,-5.0159,-5.0238,-5.0277,-5.0284,-5.03,-5.0253,-5.0424,-5.0441,-5.0456,-5.051,-5.0532,-5.0271,-5.0271,-5.027,-5.0269,0,-5.029,-5.0327,-5.0378,-5.0379,-5.0393,-5.0448,-5.0402,-5.0423,-5.0384,-5.036,-5.0421,-5.0407,-5.0424,-5.044,-5.0402,-5.0515,-5.049,-5.0435,-5.0352,-5.0489,-5.0539,-5.0559,-5.0282,-5.028,-5.0277,-5.0276,0,0,-5.052,-5.0491,-5.0511,-5.0511,-5.0497,-5.0525,-5.0577,-5.0594,-5.0614,-5.0617,-5.066,-5.0701,-5.065,-5.0657,-5.0618,-5.0663,-5.079,-5.0602,-5.0601,-5.0638,-5.0915,-5.0956,-5.0981,-5.0755,-5.0759,-5.0762,-5.0916,0,-5.0669,-5.0755,-5.0708,-5.0801,-5.0834,-5.0759,-5.0804,-5.0801,-5.078,-5.0807,-5.0784,-5.0814,-5.0745,-5.0749,-5.0789,-5.0766,-5.0845,-5.0755,-5.0795,-5.0798,-5.0799,-5.1007,-5.105,-5.1196,-5.0935,-5.0938,-5.094,0,-5.0854,-5.0865,-5.0962,-5.0943,-5.0955,-5.0997,-5.101,-5.1036,-5.1032,-5.1014,-5.1022,-5.0974,-5.1025,-5.0945,-5.1015,-5.0955,-5.0969,-5.0961,-5.0965,-5.0967,-5.0877,-5.1014,-5.1241,-5.1263,-5.097,-5.0968,-5.0966,0,-5.1013,-5.1052,-5.1115,-5.1118,-5.1097,-5.1129,-5.1122,-5.1114,-5.1128,-5.114,-5.1148,-5.1166,-5.1176,-5.1192,-5.1151,-5.1096,-5.1228,-5.1143,-5.1215,-5.1216,-5.1245,-5.1244,-5.1478,-5.1255,-5.1255,-5.1255,-5.1254,0,-5.1184,-5.1246,-5.1186,-5.1225,-5.1293,-5.124,-5.1309,-5.1294,-5.1288,-5.1324,-5.126,-5.1295,-5.1238,-5.1268,-5.1237,-5.1301,-5.1306,-5.1293,-5.1284,-5.1299,-5.1301,-5.1307,-5.1296,-5.126,-5.1259,-5.1258,-5.1257,0,-5.1372,-5.1334,-5.1398,-5.1374,-5.137,-5.1422,-5.1401,-5.1437,-5.1413,-5.1459,-5.1467,-5.1429,-5.1461,-5.1422,-5.145,-5.1429,-5.1517,-5.1492,-5.1518,-5.1511,-5.1585,-5.1579,-5.1831,-5.1862,-5.162,-5.1622,-5.1624,0,-5.1484,-5.153,-5.1511,-5.1531,-5.1528,-5.1559,-5.1573,-5.1523,-5.1541,-5.1541,-5.1578,-5.1605,-5.1623,-5.1679,-5.1655,-5.1677,-5.1653,-5.174,-5.1656,-5.167,-5.1655,-5.1653,-5.1658,-5.1757,-5.176,-5.1762,-5.1764,0,-5.1686,-5.1666,-5.1688,-5.1706,-5.1725,-5.1736,-5.1742,-5.1762,-5.1709,-5.1733,-5.1765,-5.178,-5.181,-5.1838,-5.1854,-5.1848,-5.1799,-5.1791,-5.1809,-5.1824,-5.1837,-5.1832,-5.1565,-5.1785,-5.1783,-5.1781,-5.178,-5.1779,-5.1839,-5.1878,-5.1871,-5.1899,-5.1899,-5.1907,-5.194,-5.192,-5.1946,-5.1966,-5.1935,-5.1976,-5.1973,-5.199,-5.199,-5.2022,-5.1985,-5.2011,-5.2017,-5.2024,-5.2036,-5.1833,-5.2025,-5.2024,-5.2024,-5.2023,-5.2023,0,-5.2039,-5.2031,-5.2058,-5.2069,-5.2092,-5.2043,-5.2048,-5.2071,-5.2107,-5.2109,-5.2129,-5.2167,-5.2195,-5.2174,-5.2197,-5.2227,-5.2205,-5.2235,-5.2232,-5.2232,-5.2067,-5.205,-5.2253,-5.2253,-5.2253,-5.2253,-5.2253,-5.2253,-5.2145,-5.2207,-5.2187,-5.2249,-5.2241,-5.2281,-5.2288,-5.2296,-5.2297,-5.2342,-5.2365,-5.2351,-5.2344,-5.2367,-5.2391,-5.2384,-5.2396,-5.2434,-5.242,-5.2266,-5.2244,-5.2222,-5.2205,-5.2437,-5.2438,-5.2582,-5.2583,-5.2584]},{"header":{"parameterUnit":"m.s-1","parameterCategory":1,"la1":30.2991,"la2":30.254,"lo1":-89.0895,"lo2":-89.0444,"dy":0.0017,"dx":0.0017,"nx":28,"ny":28,"refTime":"2023-09-28T09:00:00:Z","depth":0,"parameterNumber":3,"parameterNumberName":"V-component_of_WINDS"},"data":[0,0,0,0,0,0,0,0,0,0,0,0,0,0,0,0,0,0,0,0,0,0,0,0,0,0,0,0,0,0,0,0,0,0,0,0,0,0,0,0,0,0,0,0,0,0,0,0,0,0,0,0,0,0,0,0,0,0,0.6637,0.6637,0,0.6577,0.6577,0.6576,0.6601,0.6602,0.6604,0.6605,0.6538,0.6535,0.6532,0,0,0,0,0,0,0,0,0,0,0,0,0,0.677,0.6768,0.6637,0.6637,0.6636,0.6577,0.6577,0.6576,0.6601,0.6602,0.6604,0.6606,0.6539,0.6535,0.6532,0,0,0,0,0,0,0,0,0,0,0,0,0,0.6711,0.6767,0.6638,0.6641,0.6641,0.6578,0.6576,0.6575,0.66,0.6602,0.6605,0.6607,0.654,0.6536,0.6531,0.6459,0,0,0.6517,0.6515,0,0,0,0,0,0,0,0,0.6715,0.6706,0.6642,0.6641,0.6641,0.6599,0.6599,0.6536,0.66,0.6616,0.6605,0.6608,0.6556,0.655,0.6534,0.6455,0.6453,0.6516,0.6514,0.6511,0.651,0,0,0,0,0,0,0,0.6719,0.6709,0.6613,0.6641,0.664,0.6645,0.6639,0.6587,0.6574,0.6614,0.6616,0.6609,0.6556,0.6539,0.6533,0.6452,0.6516,0.6512,0.6509,0.6508,0.631,0.6308,0,0,0,0,0,0,0.6724,0.6712,0.6615,0.6612,0.6684,0.6641,0.6634,0.661,0.6575,0.6572,0.6607,0.661,0.6546,0.6538,0.653,0.6442,0.6512,0.6507,0.6504,0.6313,0.631,0.6307,0,0,0,0,0,0,0.6726,0.6715,0.6618,0.6663,0.6651,0.6636,0.6609,0.6608,0.659,0.657,0.6567,0.6591,0.6547,0.6537,0.6477,0.644,0.6505,0.6501,0.6316,0.6312,0.6308,0.6266,0,0,0,0,0,0,0.673,0.6715,0.6688,0.6662,0.6648,0.6566,0.6607,0.6605,0.6582,0.6586,0.6554,0.6551,0.6548,0.6484,0.6472,0.6435,0.6497,0.6319,0.6314,0.631,0.6271,0.6261,0.6254,0,0,0,0,0,0.6735,0.6678,0.6687,0.6675,0.6614,0.6564,0.6556,0.6555,0.6579,0.6551,0.6539,0.6552,0.6447,0.6477,0.6464,0.6425,0.6321,0.6315,0.631,0.6274,0.6263,0.6254,0,0,0,0,0,0,0.6698,0.6674,0.6684,0.6617,0.6593,0.6568,0.6532,0.6543,0.651,0.6514,0.6513,0.6506,0.6443,0.6429,0.6463,0.6354,0.6387,0.6379,0.6365,0.6354,0.6346,0.6349,0.6493,0,0,0,0,0,0.6683,0.6645,0.6626,0.6568,0.6556,0.6547,0.6524,0.6526,0.65,0.6489,0.6472,0.6444,0.6406,0.6379,0.6342,0.627,0.6262,0.6237,0.6229,0.6222,0.6214,0.6174,0.6162,0.6289,0.6289,0.6289,0,0,0.6649,0.6632,0.6607,0.6561,0.6542,0.6501,0.6537,0.6493,0.6463,0.6482,0.6424,0.641,0.638,0.6313,0.6283,0.6299,0.6177,0.6215,0.621,0.6205,0.6167,0.6155,0.6144,0.6286,0.6286,0.6287,0,0,0.6567,0.6551,0.6501,0.6483,0.6455,0.6449,0.6438,0.6412,0.6404,0.6347,0.636,0.6324,0.6257,0.6235,0.6215,0.6127,0.6138,0.6115,0.607,0.6031,0.6021,0.6012,0.5979,0.5967,0.6108,0.6108,0.6108,0,0.6528,0.647,0.6474,0.6429,0.6408,0.6426,0.6375,0.6356,0.6317,0.6301,0.6321,0.6238,0.6219,0.6146,0.6125,0.6109,0.6094,0.6117,0.6022,0.6013,0.6005,0.5974,0.5961,0.6105,0.6106,0.6106,0.6106,0,0.6423,0.6382,0.6346,0.6309,0.6284,0.6236,0.6232,0.6206,0.6211,0.6203,0.6144,0.6123,0.6081,0.6065,0.6069,0.5993,0.6004,0.6023,0.6057,0.599,0.596,0.5949,0.6101,0.6102,0.6103,0.6104,0,0,0.6313,0.6282,0.6268,0.6252,0.6224,0.6191,0.6145,0.6107,0.6084,0.6057,0.6016,0.5961,0.5978,0.5955,0.5957,0.5923,0.5854,0.5946,0.5945,0.5928,0.5768,0.5753,0.5739,0.5862,0.586,0.5858,0.577,0,0.6228,0.6147,0.615,0.6074,0.6036,0.6055,0.6014,0.5992,0.5984,0.5949,0.594,0.59,0.5928,0.5914,0.5882,0.5869,0.5821,0.5876,0.5822,0.582,0.5827,0.5724,0.5706,0.5624,0.5759,0.5757,0.5756,0,0.6116,0.6088,0.6008,0.5987,0.5971,0.5934,0.59,0.5868,0.5843,0.5839,0.5815,0.5823,0.5774,0.5812,0.5744,0.5781,0.576,0.5751,0.5748,0.574,0.5782,0.5711,0.5598,0.5585,0.5738,0.5739,0.5741,0,0.6042,0.5984,0.5929,0.5915,0.5888,0.5862,0.585,0.5827,0.5805,0.5775,0.5759,0.5724,0.5703,0.5675,0.5672,0.57,0.5604,0.5641,0.5598,0.5597,0.5574,0.5575,0.5453,0.5564,0.5565,0.5565,0.5565,0,0.5945,0.5895,0.5895,0.5861,0.5805,0.581,0.5755,0.5745,0.5726,0.5689,0.5703,0.5668,0.5668,0.5632,0.563,0.5573,0.5565,0.5559,0.5559,0.5556,0.5557,0.554,0.5545,0.5562,0.5562,0.5563,0.5563,0,0.585,0.5849,0.579,0.5771,0.5765,0.5725,0.5708,0.5675,0.5671,0.5624,0.5613,0.5604,0.5563,0.5559,0.551,0.5509,0.544,0.5447,0.5448,0.5449,0.5405,0.5408,0.5266,0.5247,0.5373,0.5372,0.5371,0,0.5787,0.575,0.5728,0.5705,0.5692,0.5655,0.5633,0.5637,0.5612,0.5582,0.5553,0.5513,0.5482,0.5415,0.5403,0.5366,0.537,0.5323,0.5364,0.5363,0.5367,0.5368,0.5364,0.5314,0.5313,0.5311,0.5311,0,0.5674,0.5676,0.5644,0.5612,0.5585,0.556,0.5536,0.5516,0.5517,0.5489,0.5448,0.5424,0.5376,0.5336,0.53,0.5285,0.5297,0.5298,0.5286,0.5282,0.5284,0.528,0.5424,0.5301,0.5302,0.5302,0.5303,0.5303,0.5592,0.556,0.554,0.5504,0.5487,0.5465,0.5433,0.5425,0.5392,0.5354,0.5358,0.5312,0.5289,0.5242,0.5226,0.5189,0.5205,0.5187,0.5182,0.5177,0.5172,0.5292,0.5183,0.5183,0.5183,0.5184,0.5184,0,0.5479,0.5468,0.5435,0.5402,0.5373,0.5391,0.5366,0.534,0.53,0.5279,0.5248,0.5201,0.5163,0.5149,0.5112,0.5085,0.509,0.5075,0.5075,0.5072,0.5161,0.5175,0.5072,0.5072,0.5072,0.5072,0.5072,0.5072,0.5416,0.5362,0.5362,0.5299,0.5288,0.5245,0.5229,0.5208,0.5191,0.5138,0.5108,0.51,0.5081,0.5043,0.5009,0.5006,0.499,0.4973,0.4972,0.5054,0.5066,0.5076,0.5089,0.497,0.497,0.4885,0.4885,0.4884]}]]